国际通讯卫星 34 星 (INTELSAT 34 (IS-34))

导读 | 豆包AI

INTELSAT 34卫星由国际通信卫星组织(ITSO)于2015年8月20日发射,定点于东经304.5°的地球静止轨道。设计寿命15年,主要为拉丁美洲提供媒体分发服务,承载巴西主流直播到户电视平台,同时为北大西洋区域海事和航空运营商提供先进宽带服务,发射总 payload 质量达9912千克,卫星本体重量约9082千克。

Basic Information
目录编号:
40874
目录名称:
INTELSAT 34
国际标识:
2015-039A
轨道中心:
EARTH
卫星名称:
国际通讯卫星 34 星
卫星全名:
国际通讯卫星 34 星 (INTELSAT 34 (IS-34))
卫星状态:
在轨 (已飞行3931 天)
发射日期:
2015-08-20 UTC
国别 :
(ITSO)
星等 :
--
Orbit Information
数据来源 国际轨道数据 AOE轨道数据
星历时间 2026-05-24T12:43:18+0800
23小时前
查看轨道信息
2026-05-21T14:00:00+0800
3天前
查看轨道信息
半长轴 42164.644km 42165.513km
偏心率 0.0000444 0.0000408
轨道倾角 0.009° 0.009°
近地点辐角 20.753° 353.402°
升交点赤经 316.020° 318.204°
平近点角 280.360° 321.791°
近地点 35784.634km 35785.655km
远地点 35788.38km 35789.097km
周期 1436.092分钟 1436.137分钟
每日圈数 1.002721 1.00269
Detailed Information
卫星平台:
LS-1300
平衡模式:
三轴稳定
覆盖范围:
全球
运营商:
国际卫星通信公司
运营商所在国:
美国
制造商(研发单位):
劳拉空间系统公司
制造商所在国:
美国
使用方式:
暂无
Satellite Introduction
从1965年4月至1984年3月,国际通信卫星组织发射了5代、6种不同性能的卫星共计35颗,除6颗卫星因运载火箭和远地点发动机故障而发射失败外,其余29颗卫星均被送到了预定的静止轨道位置。1984年8月前后,国际通信卫星组织利用部署在大西洋、太平洋、印度洋上空的15颗国际通信卫星,为遍布世界各地170多个国家或地区提供电话、电传、电报、电视和数据传输等电信业务;该卫星仍在工作。
2D Orbit Map
3D Orbit Map
Orbit Altitude Analysis Chart
Orbit Inclination Analysis Chart
Orbit Comprehensive Analysis Chart
View Comprehensive Chart